Location: Newark
(19.2431°N, 110.4642°E)
Time: 12:06:13
(UTC+00:00)

X-37B - Visible Passes

Search period start: 29 September 2020 00:00
Search period end: 09 October 2020 00:00
Orbit: 386 x 387 km, 45.0° (Epoch: 18 September)

Date Brightness Start Highest point End Pass type
(mag) Time Alt. Az. Time Alt. Az. Time Alt. Az.
29 Sep 0.7 11:04:57 10° SW 11:08:03 57° SE 11:10:46 13° ENE visible
29 Sep 3.3 20:57:21 13° SSE 20:57:21 13° SSE 20:57:47 10° SSE visible
30 Sep 3.1 11:43:43 10° W 11:46:06 19° NW 11:47:56 13° N visible
01 Oct 1.6 10:44:24 10° WSW 10:47:28 47° NW 10:50:31 10° NNE visible
